Regional Weather Roundup
Issued by NWS

Home | Current Version | Previous Version | Text Only | Print | Product List | Glossary On
Versions: 1 2 3 4 5 6 7 8 9 10 11 12 13 14 15 16 17 18 19 20 21 22 23 24 25 26 27 28 29 30 31 32 33 34 35 36 37 38 39 40 41 42 43 44 45 46 47 48 49 50
000
ASUS44 KFWD 172001
RWRTX
NORTH TEXAS HOURLY WEATHER ROUNDUP
NATIONAL WEATHER SERVICE FORT WORTH TX
300 PM CDT WED SEP 17 2014

NOTE: "FAIR" INDICATES FEW OR NO CLOUDS BELOW 12,000 FEET WITH NO
SIGNIFICANT WEATHER AND/OR OBSTRUCTIONS TO VISIBILITY.

TXZ118-119-172100-
DALLAS/FORT WORTH METROPLEX

CITY           SKY/WX    TMP DP  RH WIND       PRES   REMARKS
DFW AIRPORT    PTSUNNY   92  67  43 VRB5      29.88F HX  95
DALLAS LOVE    PTSUNNY   94  67  41 E5        29.88F HX  97
FTW MEACHAM    MOSUNNY   93  66  40 VRB3      29.88F HX  96
DAL-EXECUTIVE  CLOUDY    94  67  41 SE9       29.88F HX  97
FTW-ALLIANCE   PTSUNNY   93  63  36 VRB3      29.88F HX  94
FTW-NAS-JRB    PTSUNNY   95  65  37 S6        29.93F HX  97
FTW-SPINKS     MOSUNNY   91  68  46 SE3       29.91F HX  95
ARLINGTON      MOSUNNY   92  65  40 E6        29.89F HX  94
GRAND PRAIRIE  MOSUNNY   91  64  40 MISG      29.90F HX  93
MESQUITE       MOSUNNY   90  66  45 SE6       29.90F HX  92
LANCASTER      MOSUNNY   90  66  45 E6        29.90F HX  92
$$

TXZ091>094-102>105-117-120-121-131>134-172100-
NORTH CENTRAL TEXAS

CITY           SKY/WX    TMP DP  RH WIND       PRES   REMARKS
SHRMAN/DENISON PTSUNNY   90  65  44 CALM      29.91F HX  92
BRIDGEPORT     MOSUNNY   91  60  34 CALM      29.90F HX  91
DECATUR        MOSUNNY   88  65  46 CALM      29.91F HX  90
DENTON         MOSUNNY   92  65  40 VRB6      29.88F HX  94
MCKINNEY       MOSUNNY   92  67  43 MISG      29.89F HX  95
GREENVILLE     CLOUDY    91  64  40 SE5       29.90F HX  93
ROCKWALL       SUNNY     90  70  51 CALM      29.89F HX  95
TERRELL        MOSUNNY   92  68  45 S8        29.90F HX  96
WAXAHACHIE     PTSUNNY   93  64  38 S7        29.91F HX  94
CLEBURNE       PTSUNNY   90  68  48 CALM      29.92F HX  93
$$

TXZ083>090-098>101-113>116-127>130-139>142-154-155-172100-
WESTERN NORTH TEXAS

CITY           SKY/WX    TMP DP  RH WIND       PRES   REMARKS
WICHITA FALLS  PTSUNNY   90  68  48 VRB3      29.89F HX  94
WF-KICKAPOO    PTSUNNY   92  65  40 SW3       29.90F HX  93
VERNON         PTSUNNY   91  64  39 W9G18     29.92F HX  93
ABILENE        CLOUDY    88  66  48 N13       29.94F HX  90
ABILENE-DYESS  CLOUDY    81  68  65 W12       29.93F
MINERAL WELLS  LGT RAIN  88  67  49 SE3       29.89F HX  91
STEPHENVILLE   MOSUNNY   92  64  39 SW3       29.94F HX  93
COMANCHE       PTSUNNY   95  63  34 S5        29.91F HX  96
COLEMAN        MOSUNNY   91  63  39 S9        29.92F HX  91
$$

TXZ143>147-156>162-174-175-172100-
CENTRAL TEXAS

CITY           SKY/WX    TMP DP  RH WIND       PRES   REMARKS
WACO           SUNNY     91  69  48 S6        29.89F HX  96
WACO-TSTC      MOSUNNY   90  72  55 W3        29.89F HX  96
WACO-MCGREGOR  MOSUNNY   91  68  46 NE8       29.89F HX  95
CORSICANA      LGT RAIN  87  71  58 CALM      29.92F HX  93
MEXIA          MOSUNNY   89  71  55 CALM      29.89F HX  95
TEMPLE         CLOUDY    90  66  45 E3        29.89F HX  92
KILLEEN        PTSUNNY   93  70  46 E6        29.90F HX  99
KILLEEN-SKYLRK MOSUNNY   91  70  49 SE5       29.89F HX  97
FORT HOOD      MOSUNNY   96  69  41 SE5       29.89F HX 102
HAMILTON       SUNNY     93  65  39 E5        29.92F HX  94
LAMPASAS       MOSUNNY   92  71  49 SE6       29.91F HX  98
$$

TXZ095>097-106>112-122>126-135>138-148>153-164>167-172100-
EAST TEXAS

CITY           SKY/WX    TMP DP  RH WIND       PRES   REMARKS
PARIS          MOSUNNY   90  70  51 CALM      29.92F HX  95
SULPHUR SPRNGS PTSUNNY   91  69  49 S10       29.93F HX  95
MOUNT PLEASANT MOSUNNY   89  69  50 CALM      29.92F HX  94
MINEOLA        CLOUDY    90  72  55 CALM      29.92F HX  96
TYLER          MOSUNNY   87  72  60 SE3       29.91F HX  93
LONGVIEW       MOSUNNY   89  70  53 SE7       29.90F HX  94
MARSHALL       PTSUNNY   94  71  48 CALM      29.93F HX 100
ATHENS         MOSUNNY   88  70  55 S6        29.91F HX  92
PALESTINE      MOSUNNY   88  74  63 SW3       29.92F HX  96
JACKSONVILLE   CLOUDY    86  70  59 E3        29.94F HX  91
HENDERSON      MOSUNNY   90  71  52 S7        29.92F HX  96
NACOGDOCHES    MOSUNNY   88  72  58 SE8       29.91F HX  94
LUFKIN         MOSUNNY   89  73  59 E8        29.91F HX  97
$$

SUPPLEMENTAL OBSERVATIONS (CENTRAL)

CITY           SKY/WX    TMP DP  RH WIND       PRES   REMARKS
$$

SUPPLEMENTAL OBSERVATIONS (WEST)

CITY           SKY/WX    TMP DP  RH WIND       PRES   REMARKS
$$

SUPPLEMENTAL OBSERVATIONS (EAST)

CITY           SKY/WX    TMP DP  RH WIND       PRES   REMARKS
$$

SUPPLEMENTAL OBSERVATIONS ARE A COLLECTION OF AUTOMATED INSTRUMENTS
THAT ARE MAINTAINED BY A VARIETY OF FEDERAL AND STATE AGENCIES.
CERTAIN ELEMENTS...SUCH AS HUMIDITY VALUES AND SUSTAINED WIND
SPEEDS...MAY BE APPROXIMATED.




USA.gov is the U.S. government's official web portal to all federal, state and local government web resources and services.